DW6554 Weather Reports


time (UTC)temp
C
wind
direction
speed
KPH
gust
KPH
rain 1hr
cm
rain 24hr
cm
rain mn
cm
humidity
%
barometer
mb
20260504214525 19 65 6.4 16.1 0.00 0.00 0.00 45 1009.7
20260504213027 19 70 3.2 17.7 0.00 0.00 0.00 43 1009.8
20260504211534 20 92 1.6 12.9 0.00 0.00 0.00 41 1009.7
20260504210023 20 360 3.2 12.9 0.00 0.00 0.00 38 1009.6
20260504204521 20 295 3.2 14.5 0.00 0.00 0.00 39 1009.6
20260504203022 20 323 4.8 25.7 0.00 0.00 0.00 37 1009.5
20260504201521 21 311 4.8 17.7 0.00 0.00 0.00 35 1009.4
20260504200022 21 318 1.6 9.7 0.00 0.00 0.00 35 1009.7
20260504194519 21 341 4.8 11.3 0.00 0.00 0.00 35 1009.6
20260504193021 21 267 4.8 24.1 0.00 0.00 0.00 34 1009.8
20260504191515 21 267 6.4 19.3 0.00 0.00 0.00 34 1009.7
20260504190014 21 296 8.0 16.1 0.00 0.00 0.00 33 1009.8
20260504184513 20 331 4.8 14.5 0.00 0.00 0.00 34 1009.9
20260504183012 21 316 3.2 17.7 0.00 0.00 0.00 33 1010.2
20260504181509 20 269 4.8 14.5 0.00 0.00 0.00 32 1010.4
20260504180008 20 332 6.4 20.9 0.00 0.00 0.00 33 1010.3
20260504174504 20 215 6.4 19.3 0.00 0.00 0.00 35 1010.5
20260504173003 20 322 8.0 20.9 0.00 0.00 0.00 33 1010.9
20260504171502 20 263 3.2 25.7 0.00 0.00 0.00 33 1010.8
20260504081530 5 360 0.0 0.0 0.00 0.00 0.00 65 1012.9
20260504050025 5 180 0.0 0.0 0.00 0.00 0.00 61 1013.0
20260504044517 5 180 0.0 0.0 0.00 0.00 0.00 62 1013.1
20260504043015 5 180 0.0 0.0 0.00 0.00 0.00 59 1013.1
20260504041522 5 180 0.0 0.0 0.00 0.00 0.00 59 1013.0
20260504040009 5 180 0.0 0.0 0.00 0.00 0.00 57 1012.8
20260504034507 5 180 0.0 3.2 0.00 0.00 0.00 58 1012.8
20260504033007 5 180 0.0 3.2 0.00 0.00 0.00 59 1012.7
20260504031508 5 196 0.0 3.2 0.00 0.00 0.00 58 1012.7
20260504030005 5 196 0.0 0.0 0.00 0.00 0.00 58 1012.6
20260504024504 5 196 0.0 0.0 0.00 0.00 0.00 58 1012.5
20260504023004 6 196 0.0 0.0 0.00 0.00 0.00 60 1012.4
20260504021502 6 196 0.0 0.0 0.00 0.00 0.00 54 1012.2
20260504020001 6 227 0.0 0.0 0.00 0.00 0.00 54 1012.2
20260504014603 6 284 0.0 0.0 0.00 0.00 0.00 55 1012.1
20260504013059 6 284 0.0 0.0 0.00 0.00 0.00 54 1012.0
20260504011559 6 284 0.0 0.0 0.00 0.00 0.00 54 1011.9
20260504010058 7 284 0.0 0.0 0.00 0.00 0.00 55 1011.6
20260504004558 7 284 0.0 0.0 0.00 0.00 0.00 50 1011.3
20260504003057 7 284 0.0 0.0 0.00 0.00 0.00 50 1011.2
20260504001601 8 284 0.0 0.0 0.00 0.00 0.00 48 1010.9
20260504000059 9 284 0.0 0.0 0.00 0.00 0.00 50 1010.7
20260503234624 10 284 0.0 1.6 0.00 0.00 0.00 45 1010.7
20260503233055 10 271 1.6 8.0 0.00 0.00 0.00 44 1010.6
20260503231555 10 266 3.2 8.0 0.00 0.00 0.00 42 1010.4
20260503230058 10 310 3.2 9.7 0.00 0.00 0.00 43 1010.3
20260503224554 10 338 6.4 14.5 0.00 0.00 0.00 42 1010.2
20260503223054 11 329 9.7 17.7 0.00 0.00 0.00 41 1010.2
20260503221559 11 321 8.0 12.9 0.00 0.00 0.00 41 1010.2
20260503220053 11 25 8.0 12.9 0.00 0.00 0.00 44 1010.1